Weather in Molochnyye Dvory

Russia / Tula Oblast     53°39′09″N   37°14′06″E
temp.,
°C
wind,
m/s
gust,
m/s
humid.,
%
clouds,
%
prec.,
mm/h
press.,
hPa
HPBL,
m
17 april, sat
sat1700:00+9sw22774 0.0 101833
03:00+8sse11795 0.0 101910
06:00+7nne117960 0.0 101910
09:00+11nne3573100 0.0 1018333
12:00+13e71074100 1.9 10171167
15:00+12sse6983100 4.6 10151111
18:00+9s4585100 3.8 1017545
21:00+7sw3593100 7.4 1017251
18 april, sun
sun1800:00+7s2494100 2.4 1018207
03:00+6w1294100 3.0 101892
06:00+5w1194100 0.1 101835
09:00+8ene117965 0.2 1018510
12:00+10ene346599 0.8 10181015
15:00+8sse5583100 2.3 1019595
18:00+7ene458298 6.5 1019490
21:00+6ne3690100 6.6 1020182
19 april, mon
mon1900:00+6ne4896100 0.6 1020289
03:00+6ene5996100 0.8 1020289
06:00+5ene5109599 0.1 1020413
09:00+7ene698597 0.1 1021592
12:00+7ene7888100 0.3 1021778
15:00+7ene71089100 0.4 1021822
18:00+4ene81396100 0.0 1022660
21:00+4e81189100 0.0 1022848
20 april, tue
tue2000:00+3ene71088100 0.0 1022708
03:00+2ene61093100 0.0 1021532
06:00+2ene51097100 0.1 1020479
09:00+3ene61196100 0.3 1019514
12:00+4ene61295100 0.0 1017535
15:00+4ene81492100 0.0 1014742
18:00+4ene91793100 3.0 1010834
21:00+5ene102093100 14.8 10031241
21 april, wed
wed2100:00+7ese101894100 5.1 998787
03:00+9se71492100 5.4 998688
06:00+8se81492100 4.8 998831
09:00+8se71394100 5.8 997795
12:00+3s71195100 1.1 1000821
15:00+3sw91495100 1.4 1004727
18:00+4wsw81388100 0.4 10101089
21:00+5sw71387100 0.4 1014690